Location: Asheville, NC
(35.6000°N, 82.5500°W)
Time: 16:52:51
(UTC-05:00)

N. Korean satellite - Pass Details

Date: 08 December 2017
Orbit: 458 x 515 km, 97.2° (Epoch: 23 January)

Event Time Altitude Azimuth Distance (km) Brightness Sun altitude
Rises 18:41:19 0° 174° (S) 2,547 10.4 -16.7°
Reaches altitude 10° 18:43:23 10° 177° (S) 1,680 9.4 -17.1°
Maximum altitude 18:46:58 65° 260° (W) 553 7.0 -17.8°
Drops below altitude 10° 18:50:40 10° 342° (NNW) 1,723 9.4 -18.5°
Sets 18:52:47 0° 346° (NNW) 2,619 10.3 -18.9°
